Time,TemperatureF,DewpointF,PressureIn,WindDirection,WindDirectionDegrees,WindSpeedMPH,WindSpeedGustMPH,Humidity,HourlyPrecipIn,Conditions,Clouds,dailyrainin,SoftwareType,DateUTC
2013-01-01 00:00:00,31.6,29.0,30.01,WNW,290,5.0,5.0,90,0.00,,,0.00,Wunderground v.1.15,2013-01-01 05:00:00,
2013-01-01 00:01:00,31.6,29.0,30.02,NW,307,4.0,5.0,90,0.00,,,0.00,Wunderground v.1.15,2013-01-01 05:01:00,
2013-01-01 00:03:00,31.6,29.0,30.02,NNW,347,4.0,6.0,90,0.00,,,0.00,Wunderground v.1.15,2013-01-01 05:03:00,
2013-01-01 00:08:00,31.6,29.0,30.01,WNW,284,4.0,6.0,90,0.00,,,0.00,Wunderground v.1.15,2013-01-01 05:08:00,
2013-01-01 00:17:00,31.5,28.9,30.01,West,259,4.0,8.0,90,0.00,,,0.00,Wunderground v.1.15,2013-01-01 05:17:00,
2013-01-01 00:23:00,31.5,28.9,30.01,WNW,300,4.0,6.0,90,0.00,,,0.00,Wunderground v.1.15,2013-01-01 05:23:00,
2013-01-01 00:28:00,31.5,28.9,30.01,West,259,4.0,6.0,90,0.00,,,0.00,Wunderground v.1.15,2013-01-01 05:28:00,
2013-01-01 00:34:00,31.5,28.9,30.01,West,269,4.0,5.0,90,0.00,,,0.00,Wunderground v.1.15,2013-01-01 05:34:00,
2013-01-01 00:40:00,31.5,28.9,30.02,WSW,257,4.0,7.0,90,0.00,,,0.00,Wunderground v.1.15,2013-01-01 05:40:00,
2013-01-01 00:46:00,31.5,28.9,30.02,WNW,292,4.0,10.0,90,0.00,,,0.00,Wunderground v.1.15,2013-01-01 05:46:00,
2013-01-01 00:51:00,31.5,28.9,30.01,NW,307,4.0,4.0,90,0.00,,,0.00,Wunderground v.1.15,2013-01-01 05:51:00,
2013-01-01 00:57:00,31.4,28.8,30.01,WNW,291,4.0,5.0,90,0.00,,,0.00,Wunderground v.1.15,2013-01-01 05:57:00,
2013-01-01 01:03:00,31.5,28.9,30.01,WNW,288,4.0,5.0,90,0.00,,,0.00,Wunderground v.1.15,2013-01-01 06:03:00,
2013-01-01 01:08:00,31.5,28.9,30.02,WNW,293,5.0,5.0,90,0.00,,,0.00,Wunderground v.1.15,2013-01-01 06:08:00,
2013-01-01 01:14:00,31.5,28.9,30.02,WNW,283,5.0,9.0,90,0.00,,,0.00,Wunderground v.1.15,2013-01-01 06:14:00,
2013-01-01 01:21:00,31.6,29.0,30.02,West,278,5.0,5.0,90,0.00,,,0.00,Wunderground v.1.15,2013-01-01 06:21:00,
2013-01-01 01:27:00,31.5,28.9,30.02,West,276,5.0,7.0,90,0.00,,,0.00,Wunderground v.1.15,2013-01-01 06:27:00,
2013-01-01 01:32:00,31.5,28.9,30.01,WNW,287,4.0,10.0,90,0.00,,,0.00,Wunderground v.1.15,2013-01-01 06:32:00,
2013-01-01 01:38:00,31.5,28.9,30.01,NW,307,4.0,4.0,90,0.00,,,0.00,Wunderground v.1.15,2013-01-01 06:38:00,
2013-01-01 01:43:00,31.5,28.9,30.01,WNW,287,4.0,6.0,90,0.00,,,0.00,Wunderground v.1.15,2013-01-01 06:43:00,
2013-01-01 01:48:00,31.4,28.8,30.00,West,264,4.0,5.0,90,0.00,,,0.00,Wunderground v.1.15,2013-01-01 06:48:00,
2013-01-01 01:55:00,31.4,28.8,30.00,WNW,287,3.0,6.0,90,0.00,,,0.00,Wunderground v.1.15,2013-01-01 06:55:00,
2013-01-01 02:01:00,31.3,28.7,30.00,WNW,286,4.0,7.0,90,0.00,,,0.00,Wunderground v.1.15,2013-01-01 07:01:00,
2013-01-01 02:06:00,31.3,28.7,30.00,WNW,287,4.0,7.0,90,0.00,,,0.00,Wunderground v.1.15,2013-01-01 07:06:00,
2013-01-01 02:11:00,31.3,29.0,30.00,WNW,300,5.0,8.0,90,0.00,,,0.00,weatherlink.com 1.10,2013-01-01 07:11:00,
2013-01-01 02:17:00,31.3,28.7,30.00,NW,311,4.0,8.0,90,0.00,,,0.00,Wunderground v.1.15,2013-01-01 07:17:00,
2013-01-01 02:22:00,31.3,28.7,30.00,WNW,287,3.0,5.0,90,0.00,,,0.00,Wunderground v.1.15,2013-01-01 07:22:00,
2013-01-01 02:28:00,31.3,29.0,30.00,WNW,287,3.0,7.0,90,0.00,,,0.00,weatherlink.com 1.10,2013-01-01 07:28:00,
2013-01-01 02:33:00,31.3,28.7,30.01,WNW,295,3.0,6.0,90,0.00,,,0.00,Wunderground v.1.15,2013-01-01 07:33:00,
2013-01-01 02:39:00,31.3,28.7,30.00,West,280,4.0,9.0,90,0.00,,,0.00,Wunderground v.1.15,2013-01-01 07:39:00,
2013-01-01 02:44:00,31.3,28.7,30.01,NW,315,4.0,4.0,90,0.00,,,0.00,Wunderground v.1.15,2013-01-01 07:44:00,
2013-01-01 02:50:00,31.2,28.6,30.00,NW,307,3.0,6.0,90,0.00,,,0.00,Wunderground v.1.15,2013-01-01 07:50:00,
2013-01-01 02:56:00,31.2,28.6,30.00,NW,307,3.0,6.0,90,0.00,,,0.00,Wunderground v.1.15,2013-01-01 07:56:00,
2013-01-01 03:02:00,31.2,28.6,30.00,WNW,284,3.0,4.0,90,0.00,,,0.00,Wunderground v.1.15,2013-01-01 08:02:00,
2013-01-01 03:07:00,31.2,28.6,30.00,WNW,283,3.0,5.0,90,0.00,,,0.00,Wunderground v.1.15,2013-01-01 08:07:00,
2013-01-01 03:13:00,31.2,28.6,30.01,West,281,3.0,4.0,90,0.00,,,0.00,Wunderground v.1.15,2013-01-01 08:13:00,
2013-01-01 03:19:00,31.2,28.6,30.01,WNW,297,3.0,5.0,90,0.00,,,0.00,Wunderground v.1.15,2013-01-01 08:19:00,
2013-01-01 03:24:00,31.1,28.5,30.00,NW,316,3.0,7.0,90,0.00,,,0.00,Wunderground v.1.15,2013-01-01 08:24:00,
2013-01-01 03:29:00,31.1,28.8,30.01,NW,315,4.0,5.0,91,0.00,,,0.00,Wunderground v.1.15,2013-01-01 08:29:00,
2013-01-01 03:34:00,31.0,28.4,30.01,NNW,333,5.0,6.0,90,0.00,,,0.00,Wunderground v.1.15,2013-01-01 08:34:00,
2013-01-01 03:39:00,30.9,28.3,30.01,NW,321,4.0,4.0,90,0.00,,,0.00,Wunderground v.1.15,2013-01-01 08:39:00,
2013-01-01 03:45:00,30.8,28.2,30.01,WNW,298,3.0,5.0,90,0.00,,,0.00,Wunderground v.1.15,2013-01-01 08:45:00,
2013-01-01 03:53:00,30.7,27.8,30.01,WNW,300,3.0,4.0,89,0.00,,,0.00,Wunderground v.1.15,2013-01-01 08:53:00,
2013-01-01 03:59:00,30.6,27.7,30.01,NW,311,4.0,4.0,89,0.00,,,0.00,Wunderground v.1.15,2013-01-01 08:59:00,
2013-01-01 04:05:00,30.5,27.4,30.01,WNW,293,4.0,6.0,88,0.00,,,0.00,Wunderground v.1.15,2013-01-01 09:05:00,
2013-01-01 04:13:00,30.4,27.0,30.01,NW,314,3.0,4.0,87,0.00,,,0.00,Wunderground v.1.15,2013-01-01 09:13:00,
2013-01-01 04:19:00,30.4,26.7,30.01,NW,307,3.0,3.0,86,0.00,,,0.00,Wunderground v.1.15,2013-01-01 09:19:00,
2013-01-01 04:24:00,30.4,26.7,30.02,NW,315,3.0,4.0,86,0.00,,,0.00,Wunderground v.1.15,2013-01-01 09:24:00,
2013-01-01 04:29:00,30.3,26.6,30.02,WNW,297,2.0,2.0,86,0.00,,,0.00,Wunderground v.1.15,2013-01-01 09:29:00,
2013-01-01 04:34:00,30.2,26.8,30.01,NNW,346,1.0,2.0,87,0.00,,,0.00,Wunderground v.1.15,2013-01-01 09:34:00,
2013-01-01 04:40:00,30.2,26.8,30.01,NW,314,1.0,3.0,87,0.00,,,0.00,Wunderground v.1.15,2013-01-01 09:40:00,
2013-01-01 04:46:00,30.2,26.8,30.01,WNW,294,2.0,4.0,87,0.00,,,0.00,Wunderground v.1.15,2013-01-01 09:46:00,
2013-01-01 04:51:00,30.1,26.7,30.01,NW,307,2.0,3.0,87,0.00,,,0.00,Wunderground v.1.15,2013-01-01 09:51:00,
2013-01-01 04:57:00,30.1,26.7,30.01,WNW,284,1.0,3.0,87,0.00,,,0.00,Wunderground v.1.15,2013-01-01 09:57:00,
2013-01-01 05:02:00,30.1,26.7,30.01,WNW,290,1.0,1.0,87,0.00,,,0.00,Wunderground v.1.15,2013-01-01 10:02:00,
2013-01-01 05:09:00,30.0,26.3,30.01,WNW,300,1.0,3.0,86,0.00,,,0.00,Wunderground v.1.15,2013-01-01 10:09:00,
2013-01-01 05:14:00,30.0,26.0,30.01,NW,316,2.0,5.0,86,0.00,,,0.00,weatherlink.com 1.10,2013-01-01 10:14:00,
2013-01-01 05:21:00,30.0,26.0,30.01,NNW,338,4.0,4.0,85,0.00,,,0.00,Wunderground v.1.15,2013-01-01 10:21:00,
2013-01-01 05:27:00,29.9,25.9,30.00,NW,315,4.0,4.0,85,0.00,,,0.00,Wunderground v.1.15,2013-01-01 10:27:00,
2013-01-01 05:32:00,29.8,25.8,30.00,WNW,292,3.0,5.0,85,0.00,,,0.00,Wunderground v.1.15,2013-01-01 10:32:00,
2013-01-01 05:38:00,29.8,25.8,30.01,WNW,293,2.0,2.0,85,0.00,,,0.00,Wunderground v.1.15,2013-01-01 10:38:00,
2013-01-01 05:44:00,29.8,26.0,30.01,NW,307,4.0,6.0,85,0.00,,,0.00,weatherlink.com 1.10,2013-01-01 10:44:00,
2013-01-01 05:50:00,29.8,25.8,30.01,NW,304,3.0,4.0,85,0.00,,,0.00,Wunderground v.1.15,2013-01-01 10:50:00,
2013-01-01 05:57:00,29.7,25.7,30.01,NW,326,3.0,4.0,85,0.00,,,0.00,Wunderground v.1.15,2013-01-01 10:57:00,
2013-01-01 06:03:00,29.7,25.7,30.01,WNW,295,3.0,3.0,85,0.00,,,0.00,Wunderground v.1.15,2013-01-01 11:03:00,
2013-01-01 06:08:00,29.6,25.6,30.02,WNW,292,2.0,2.0,85,0.00,,,0.00,Wunderground v.1.15,2013-01-01 11:08:00,
2013-01-01 06:14:00,29.6,25.6,30.02,WNW,302,3.0,5.0,85,0.00,,,0.00,Wunderground v.1.15,2013-01-01 11:14:00,
2013-01-01 06:19:00,29.6,25.6,30.02,WNW,292,3.0,4.0,85,0.00,,,0.00,Wunderground v.1.15,2013-01-01 11:19:00,
2013-01-01 06:25:00,29.6,25.6,30.02,NW,310,3.0,5.0,85,0.00,,,0.00,Wunderground v.1.15,2013-01-01 11:25:00,
2013-01-01 06:30:00,29.6,25.6,30.03,WNW,295,4.0,4.0,85,0.00,,,0.00,Wunderground v.1.15,2013-01-01 11:30:00,
2013-01-01 06:36:00,29.5,25.5,30.03,WNW,290,4.0,5.0,85,0.00,,,0.00,Wunderground v.1.15,2013-01-01 11:36:00,
2013-01-01 06:41:00,29.5,25.5,30.02,NW,307,3.0,3.0,85,0.00,,,0.00,Wunderground v.1.15,2013-01-01 11:41:00,
2013-01-01 06:48:00,29.4,25.4,30.02,NNW,342,3.0,4.0,85,0.00,,,0.00,Wunderground v.1.15,2013-01-01 11:48:00,
2013-01-01 06:54:00,29.3,25.6,30.02,NW,307,3.0,5.0,86,0.00,,,0.00,Wunderground v.1.15,2013-01-01 11:54:00,
2013-01-01 06:59:00,29.2,25.5,30.02,NW,321,4.0,4.0,86,0.00,,,0.00,Wunderground v.1.15,2013-01-01 11:59:00,
2013-01-01 07:05:00,29.1,25.4,30.02,NW,316,4.0,4.0,86,0.00,,,0.00,Wunderground v.1.15,2013-01-01 12:05:00,
2013-01-01 07:11:00,29.0,25.3,30.03,NW,320,3.0,4.0,86,0.00,,,0.00,Wunderground v.1.15,2013-01-01 12:11:00,
2013-01-01 07:16:00,29.0,25.3,30.03,NW,317,4.0,6.0,86,0.00,,,0.00,Wunderground v.1.15,2013-01-01 12:16:00,
2013-01-01 07:21:00,29.0,25.3,30.03,WNW,302,3.0,4.0,86,0.00,,,0.00,Wunderground v.1.15,2013-01-01 12:21:00,
2013-01-01 07:26:00,29.0,25.1,30.03,NW,310,3.0,4.0,85,0.00,,,0.00,Wunderground v.1.15,2013-01-01 12:26:00,
2013-01-01 07:32:00,29.0,24.8,30.03,WNW,302,4.0,7.0,84,0.00,,,0.00,Wunderground v.1.15,2013-01-01 12:32:00,
2013-01-01 07:37:00,29.0,24.8,30.04,NW,321,5.0,8.0,84,0.00,,,0.00,Wunderground v.1.15,2013-01-01 12:37:00,
2013-01-01 07:42:00,29.0,24.8,30.04,NW,322,5.0,6.0,84,0.00,,,0.00,Wunderground v.1.15,2013-01-01 12:42:00,
2013-01-01 07:49:00,28.9,24.7,30.04,WNW,286,4.0,5.0,84,0.00,,,0.00,Wunderground v.1.15,2013-01-01 12:49:00,
2013-01-01 07:54:00,28.9,24.7,30.04,NW,304,4.0,6.0,84,0.00,,,0.00,Wunderground v.1.15,2013-01-01 12:54:00,
2013-01-01 08:01:00,28.8,24.6,30.04,WNW,291,4.0,5.0,84,0.00,,,0.00,Wunderground v.1.15,2013-01-01 13:01:00,
2013-01-01 08:06:00,28.8,24.6,30.04,NW,325,3.0,5.0,84,0.00,,,0.00,Wunderground v.1.15,2013-01-01 13:06:00,
2013-01-01 08:13:00,28.7,24.5,30.03,WNW,295,2.0,4.0,84,0.00,,,0.00,Wunderground v.1.15,2013-01-01 13:13:00,
2013-01-01 08:19:00,28.6,24.7,30.03,WNW,297,2.0,4.0,85,0.00,,,0.00,Wunderground v.1.15,2013-01-01 13:19:00,
2013-01-01 08:25:00,28.6,24.7,30.03,NW,316,2.0,3.0,85,0.00,,,0.00,Wunderground v.1.15,2013-01-01 13:25:00,
2013-01-01 08:30:00,28.6,24.7,30.04,NNW,333,2.0,4.0,85,0.00,,,0.00,Wunderground v.1.15,2013-01-01 13:30:00,
2013-01-01 08:36:00,28.5,24.6,30.04,NNW,331,3.0,4.0,85,0.00,,,0.00,Wunderground v.1.15,2013-01-01 13:36:00,
2013-01-01 08:41:00,28.5,24.6,30.04,North,357,3.0,4.0,85,0.00,,,0.00,Wunderground v.1.15,2013-01-01 13:41:00,
2013-01-01 08:47:00,28.5,24.3,30.04,NW,316,3.0,4.0,84,0.00,,,0.00,Wunderground v.1.15,2013-01-01 13:47:00,
2013-01-01 08:52:00,28.4,24.2,30.04,NW,314,3.0,7.0,84,0.00,,,0.00,Wunderground v.1.15,2013-01-01 13:52:00,
2013-01-01 08:59:00,28.4,24.2,30.05,NNE,16,4.0,5.0,84,0.00,,,0.00,Wunderground v.1.15,2013-01-01 13:59:00,
2013-01-01 09:06:00,28.3,23.8,30.06,North,352,4.0,5.0,83,0.00,,,0.00,Wunderground v.1.15,2013-01-01 14:06:00,
2013-01-01 09:12:00,28.3,23.8,30.06,NNW,338,3.0,4.0,83,0.00,,,0.00,Wunderground v.1.15,2013-01-01 14:12:00,
2013-01-01 09:19:00,28.2,23.7,30.06,NNW,329,3.0,6.0,83,0.00,,,0.00,Wunderground v.1.15,2013-01-01 14:19:00,
2013-01-01 09:24:00,28.1,23.6,30.07,NW,325,3.0,6.0,83,0.00,,,0.00,Wunderground v.1.15,2013-01-01 14:24:00,
2013-01-01 09:30:00,28.0,23.5,30.07,NNE,16,4.0,5.0,83,0.00,,,0.00,Wunderground v.1.15,2013-01-01 14:30:00,
2013-01-01 09:35:00,28.0,23.5,30.08,NW,320,5.0,5.0,83,0.00,,,0.00,Wunderground v.1.15,2013-01-01 14:35:00,
2013-01-01 09:40:00,27.9,23.4,30.08,WNW,302,4.0,7.0,83,0.00,,,0.00,Wunderground v.1.15,2013-01-01 14:40:00,
2013-01-01 09:46:00,27.8,23.3,30.08,NNW,341,4.0,7.0,83,0.00,,,0.00,Wunderground v.1.15,2013-01-01 14:46:00,
2013-01-01 09:51:00,27.7,22.9,30.08,North,9,5.0,10.0,82,0.00,,,0.00,Wunderground v.1.15,2013-01-01 14:51:00,
2013-01-01 09:57:00,27.5,23.0,30.08,NNW,330,6.0,10.0,83,0.00,,,0.00,Wunderground v.1.15,2013-01-01 14:57:00,
2013-01-01 10:02:00,27.2,23.0,30.08,WNW,296,5.0,7.0,84,0.00,,,0.00,Wunderground v.1.15,2013-01-01 15:02:00,
2013-01-01 10:09:00,27.0,22.8,30.08,NNE,15,5.0,7.0,84,0.00,,,0.00,Wunderground v.1.15,2013-01-01 15:09:00,
2013-01-01 10:14:00,26.9,22.7,30.08,North,5,5.0,8.0,84,0.00,,,0.00,Wunderground v.1.15,2013-01-01 15:14:00,
2013-01-01 10:20:00,26.9,22.7,30.08,NNE,25,5.0,8.0,84,0.00,,,0.00,Wunderground v.1.15,2013-01-01 15:20:00,
2013-01-01 10:26:00,26.8,22.3,30.08,WNW,297,4.0,8.0,83,0.00,,,0.00,Wunderground v.1.15,2013-01-01 15:26:00,
2013-01-01 10:31:00,26.6,22.1,30.08,NNW,340,5.0,6.0,83,0.00,,,0.00,Wunderground v.1.15,2013-01-01 15:31:00,
2013-01-01 10:36:00,26.5,22.0,30.09,NNW,330,5.0,9.0,83,0.00,,,0.00,Wunderground v.1.15,2013-01-01 15:36:00,
2013-01-01 10:42:00,26.3,21.8,30.09,NNW,338,5.0,6.0,83,0.00,,,0.00,Wunderground v.1.15,2013-01-01 15:42:00,
2013-01-01 10:48:00,26.2,21.7,30.09,NE,48,5.0,8.0,83,0.00,,,0.00,Wunderground v.1.15,2013-01-01 15:48:00,
2013-01-01 10:55:00,26.2,21.5,30.09,WNW,297,5.0,6.0,82,0.00,,,0.00,Wunderground v.1.15,2013-01-01 15:55:00,
2013-01-01 11:03:00,25.8,20.8,30.09,NNW,334,6.0,8.0,81,0.00,,,0.00,Wunderground v.1.15,2013-01-01 16:03:00,
2013-01-01 11:08:00,25.7,21.0,30.09,WNW,297,6.0,8.0,82,0.00,,,0.00,Wunderground v.1.15,2013-01-01 16:08:00,
2013-01-01 11:14:00,25.5,20.5,30.08,NW,309,6.0,10.0,81,0.00,,,0.00,Wunderground v.1.15,2013-01-01 16:14:00,
2013-01-01 11:19:00,25.2,20.2,30.08,NW,307,7.0,7.0,81,0.00,,,0.00,Wunderground v.1.15,2013-01-01 16:19:00,
2013-01-01 11:25:00,25.0,20.3,30.08,NW,322,7.0,9.0,82,0.00,,,0.00,Wunderground v.1.15,2013-01-01 16:25:00,
2013-01-01 11:30:00,24.9,19.9,30.07,North,1,6.0,8.0,81,0.00,,,0.00,Wunderground v.1.15,2013-01-01 16:30:00,
2013-01-01 11:37:00,24.7,20.0,30.06,NNW,327,7.0,13.0,82,0.00,,,0.00,Wunderground v.1.15,2013-01-01 16:37:00,
2013-01-01 11:43:00,24.8,20.1,30.07,NNW,343,6.0,9.0,82,0.00,,,0.00,Wunderground v.1.15,2013-01-01 16:43:00,
2013-01-01 11:48:00,24.8,20.1,30.07,North,352,5.0,9.0,82,0.00,,,0.00,Wunderground v.1.15,2013-01-01 16:48:00,
2013-01-01 11:54:00,24.8,19.8,30.07,NW,309,4.0,7.0,81,0.00,,,0.00,Wunderground v.1.15,2013-01-01 16:54:00,
2013-01-01 11:59:00,24.9,19.9,30.07,WNW,293,3.0,3.0,81,0.00,,,0.00,Wunderground v.1.15,2013-01-01 16:59:00,
2013-01-01 12:04:00,24.9,20.0,30.06,NNE,22,6.0,9.0,80,0.00,,,0.00,weatherlink.com 1.10,2013-01-01 17:04:00,
2013-01-01 12:10:00,24.9,19.9,30.06,NW,323,4.0,4.0,81,0.00,,,0.00,Wunderground v.1.15,2013-01-01 17:10:00,
2013-01-01 12:16:00,24.8,19.5,30.06,North,8,5.0,11.0,80,0.00,,,0.00,Wunderground v.1.15,2013-01-01 17:16:00,
2013-01-01 12:24:00,24.6,19.6,30.07,NNW,332,6.0,10.0,81,0.00,,,0.00,Wunderground v.1.15,2013-01-01 17:24:00,
2013-01-01 12:29:00,24.4,19.1,30.06,NNW,341,5.0,5.0,80,0.00,,,0.00,Wunderground v.1.15,2013-01-01 17:29:00,
2013-01-01 12:34:00,24.5,19.0,30.07,NW,314,4.0,8.0,81,0.00,,,0.00,weatherlink.com 1.10,2013-01-01 17:34:00,
2013-01-01 12:41:00,24.5,19.5,30.06,South,188,4.0,4.0,81,0.00,,,0.00,Wunderground v.1.15,2013-01-01 17:41:00,
2013-01-01 12:47:00,24.7,20.0,30.07,WNW,302,3.0,4.0,82,0.00,,,0.00,Wunderground v.1.15,2013-01-01 17:47:00,
2013-01-01 12:52:00,24.6,19.6,30.08,NW,323,3.0,7.0,81,0.00,,,0.00,Wunderground v.1.15,2013-01-01 17:52:00,
2013-01-01 12:59:00,24.5,19.5,30.05,NNW,348,5.0,5.0,81,0.00,,,0.00,Wunderground v.1.15,2013-01-01 17:59:00,
2013-01-01 13:04:00,24.4,19.4,30.04,NNW,332,4.0,7.0,81,0.00,,,0.00,Wunderground v.1.15,2013-01-01 18:04:00,
2013-01-01 13:09:00,24.5,19.8,30.05,NW,318,4.0,4.0,82,0.00,,,0.00,Wunderground v.1.15,2013-01-01 18:09:00,
2013-01-01 13:17:00,24.3,19.3,30.05,NNW,338,5.0,6.0,81,0.00,,,0.00,Wunderground v.1.15,2013-01-01 18:17:00,
2013-01-01 13:22:00,24.2,19.5,30.04,NNW,338,5.0,10.0,82,0.00,,,0.00,Wunderground v.1.15,2013-01-01 18:22:00,
2013-01-01 13:28:00,24.3,19.6,30.05,NNW,330,5.0,10.0,82,0.00,,,0.00,Wunderground v.1.15,2013-01-01 18:28:00,
2013-01-01 13:33:00,24.3,19.6,30.06,WNW,297,4.0,6.0,82,0.00,,,0.00,Wunderground v.1.15,2013-01-01 18:33:00,
2013-01-01 13:38:00,24.2,19.8,30.06,NW,314,5.0,5.0,83,0.00,,,0.00,Wunderground v.1.15,2013-01-01 18:38:00,
2013-01-01 13:44:00,23.9,19.5,30.07,WNW,292,5.0,6.0,83,0.00,,,0.00,Wunderground v.1.15,2013-01-01 18:44:00,
2013-01-01 13:50:00,23.9,20.0,30.07,NNW,333,4.0,10.0,84,0.00,,,0.00,weatherlink.com 1.10,2013-01-01 18:50:00,
2013-01-01 13:55:00,23.9,19.5,30.06,WNW,300,4.0,8.0,83,0.00,,,0.00,Wunderground v.1.15,2013-01-01 18:55:00,
2013-01-01 14:01:00,23.9,19.5,30.06,NW,307,4.0,6.0,83,0.00,,,0.00,Wunderground v.1.15,2013-01-01 19:01:00,
2013-01-01 14:07:00,23.9,19.5,30.06,NW,314,4.0,9.0,83,0.00,,,0.00,Wunderground v.1.15,2013-01-01 19:07:00,
2013-01-01 14:14:00,23.7,19.0,30.05,NNW,330,5.0,8.0,82,0.00,,,0.00,Wunderground v.1.15,2013-01-01 19:14:00,
2013-01-01 14:19:00,23.7,18.7,30.04,NNW,329,6.0,9.0,81,0.00,,,0.00,Wunderground v.1.15,2013-01-01 19:19:00,
2013-01-01 14:24:00,23.6,18.6,30.03,NNW,328,6.0,10.0,81,0.00,,,0.00,Wunderground v.1.15,2013-01-01 19:24:00,
2013-01-01 14:30:00,23.5,18.5,30.02,North,359,7.0,7.0,81,0.00,,,0.00,Wunderground v.1.15,2013-01-01 19:30:00,
2013-01-01 14:35:00,23.6,19.0,30.04,WNW,300,5.0,10.0,81,0.00,,,0.00,weatherlink.com 1.10,2013-01-01 19:35:00,
2013-01-01 14:42:00,23.7,18.4,30.04,North,360,4.0,6.0,80,0.00,,,0.00,Wunderground v.1.15,2013-01-01 19:42:00,
2013-01-01 14:49:00,23.7,18.4,30.05,North,355,4.0,6.0,80,0.00,,,0.00,Wunderground v.1.15,2013-01-01 19:49:00,
2013-01-01 14:54:00,23.8,18.5,30.05,NW,320,4.0,9.0,80,0.00,,,0.00,Wunderground v.1.15,2013-01-01 19:54:00,
2013-01-01 14:59:00,23.6,18.0,30.05,NNW,347,4.0,5.0,79,0.00,,,0.00,Wunderground v.1.15,2013-01-01 19:59:00,
2013-01-01 15:05:00,23.3,18.0,30.06,NNE,32,4.0,9.0,79,0.00,,,0.00,weatherlink.com 1.10,2013-01-01 20:05:00,
2013-01-01 15:11:00,23.2,17.7,30.06,WNW,295,5.0,6.0,79,0.00,,,0.00,Wunderground v.1.15,2013-01-01 20:11:00,
2013-01-01 15:16:00,23.1,17.8,30.06,NNW,329,4.0,6.0,80,0.00,,,0.00,Wunderground v.1.15,2013-01-01 20:16:00,
2013-01-01 15:22:00,23.0,17.7,30.07,WNW,292,4.0,7.0,80,0.00,,,0.00,Wunderground v.1.15,2013-01-01 20:22:00,
2013-01-01 15:29:00,22.9,17.7,30.08,NW,315,5.0,7.0,80,0.00,,,0.00,Wunderground v.1.15,2013-01-01 20:29:00,
2013-01-01 15:34:00,22.9,17.7,30.08,NW,322,4.0,5.0,80,0.00,,,0.00,Wunderground v.1.15,2013-01-01 20:34:00,
2013-01-01 15:39:00,22.9,17.7,30.08,North,354,3.0,4.0,80,0.00,,,0.00,Wunderground v.1.15,2013-01-01 20:39:00,
2013-01-01 15:44:00,22.9,17.7,30.08,NW,319,4.0,8.0,80,0.00,,,0.00,Wunderground v.1.15,2013-01-01 20:44:00,
2013-01-01 15:49:00,22.8,17.6,30.08,NW,322,5.0,7.0,80,0.00,,,0.00,Wunderground v.1.15,2013-01-01 20:49:00,
2013-01-01 15:55:00,22.8,17.6,30.08,NNW,343,4.0,7.0,80,0.00,,,0.00,Wunderground v.1.15,2013-01-01 20:55:00,
2013-01-01 16:01:00,22.8,17.8,30.08,North,5,4.0,5.0,81,0.00,,,0.00,Wunderground v.1.15,2013-01-01 21:01:00,
2013-01-01 16:07:00,22.8,18.0,30.08,NW,312,2.0,7.0,81,0.00,,,0.00,weatherlink.com 1.10,2013-01-01 21:07:00,
2013-01-01 16:12:00,22.7,17.7,30.08,NNW,330,3.0,3.0,81,0.00,,,0.00,Wunderground v.1.15,2013-01-01 21:12:00,
2013-01-01 16:19:00,22.7,17.7,30.08,WNW,300,3.0,8.0,81,0.00,,,0.00,Wunderground v.1.15,2013-01-01 21:19:00,
2013-01-01 16:34:00,22.5,17.8,30.08,NW,315,3.0,5.0,82,0.00,,,0.00,Wunderground v.1.15,2013-01-01 21:34:00,
2013-01-01 16:40:00,22.5,17.8,30.09,NNW,346,3.0,3.0,82,0.00,,,0.00,Wunderground v.1.15,2013-01-01 21:40:00,
2013-01-01 16:45:00,22.4,17.7,30.09,NNW,331,3.0,7.0,82,0.00,,,0.00,Wunderground v.1.15,2013-01-01 21:45:00,
2013-01-01 16:51:00,22.3,17.9,30.08,NW,321,3.0,3.0,83,0.00,,,0.00,Wunderground v.1.15,2013-01-01 21:51:00,
2013-01-01 16:57:00,22.1,17.7,30.08,WNW,291,3.0,4.0,83,0.00,,,0.00,Wunderground v.1.15,2013-01-01 21:57:00,
2013-01-01 17:03:00,22.1,18.0,30.08,WNW,293,3.0,3.0,84,0.00,,,0.00,Wunderground v.1.15,2013-01-01 22:03:00,
2013-01-01 17:09:00,22.1,18.0,30.08,WNW,300,2.0,3.0,84,0.00,,,0.00,Wunderground v.1.15,2013-01-01 22:09:00,
2013-01-01 17:14:00,22.1,18.0,30.08,West,262,1.0,2.0,84,0.00,,,0.00,Wunderground v.1.15,2013-01-01 22:14:00,
2013-01-01 17:20:00,22.1,18.0,30.08,West,281,1.0,1.0,84,0.00,,,0.00,Wunderground v.1.15,2013-01-01 22:20:00,
2013-01-01 17:26:00,22.1,18.0,30.08,WSW,250,1.0,2.0,84,0.00,,,0.00,Wunderground v.1.15,2013-01-01 22:26:00,
2013-01-01 17:31:00,22.2,18.1,30.08,West,277,2.0,2.0,84,0.00,,,0.00,Wunderground v.1.15,2013-01-01 22:31:00,
2013-01-01 17:36:00,22.1,18.0,30.08,WNW,294,1.0,2.0,84,0.00,,,0.00,Wunderground v.1.15,2013-01-01 22:36:00,
2013-01-01 17:42:00,22.1,18.0,30.09,WNW,283,1.0,2.0,84,0.00,,,0.00,Wunderground v.1.15,2013-01-01 22:42:00,
2013-01-01 17:47:00,22.1,18.0,30.09,West,260,2.0,2.0,84,0.00,,,0.00,Wunderground v.1.15,2013-01-01 22:47:00,
2013-01-01 17:52:00,22.1,18.0,30.09,WNW,295,2.0,2.0,84,0.00,,,0.00,Wunderground v.1.15,2013-01-01 22:52:00,
2013-01-01 17:59:00,22.2,18.1,30.09,West,278,2.0,2.0,84,0.00,,,0.00,Wunderground v.1.15,2013-01-01 22:59:00,
2013-01-01 18:05:00,22.2,18.1,30.08,WNW,298,2.0,3.0,84,0.00,,,0.00,Wunderground v.1.15,2013-01-01 23:05:00,
2013-01-01 18:10:00,22.3,17.9,30.09,WNW,283,2.0,3.0,83,0.00,,,0.00,Wunderground v.1.15,2013-01-01 23:10:00,
2013-01-01 18:16:00,22.3,17.9,30.08,West,277,2.0,3.0,83,0.00,,,0.00,Wunderground v.1.15,2013-01-01 23:16:00,
2013-01-01 18:21:00,22.3,17.6,30.08,WNW,293,1.0,3.0,82,0.00,,,0.00,Wunderground v.1.15,2013-01-01 23:21:00,
2013-01-01 18:27:00,22.3,17.6,30.08,WNW,290,1.0,3.0,82,0.00,,,0.00,Wunderground v.1.15,2013-01-01 23:27:00,
2013-01-01 18:32:00,22.3,17.6,30.08,NW,314,1.0,2.0,82,0.00,,,0.00,Wunderground v.1.15,2013-01-01 23:32:00,
2013-01-01 18:38:00,22.3,17.0,30.08,WNW,290,3.0,4.0,81,0.00,,,0.00,weatherlink.com 1.10,2013-01-01 23:38:00,
2013-01-01 18:43:00,22.4,17.2,30.08,WNW,288,2.0,3.0,80,0.00,,,0.00,Wunderground v.1.15,2013-01-01 23:43:00,
2013-01-01 18:48:00,22.3,17.4,30.08,West,280,1.0,3.0,81,0.00,,,0.00,Wunderground v.1.15,2013-01-01 23:48:00,
2013-01-01 18:54:00,22.3,17.4,30.08,WNW,293,1.0,2.0,81,0.00,,,0.00,Wunderground v.1.15,2013-01-01 23:54:00,
2013-01-01 18:59:00,22.3,17.4,30.08,WNW,283,1.0,2.0,81,0.00,,,0.00,Wunderground v.1.15,2013-01-01 23:59:00,
2013-01-01 19:06:00,22.4,17.2,30.08,NNW,328,2.0,2.0,80,0.00,,,0.00,Wunderground v.1.15,2013-01-02 00:06:00,
2013-01-01 19:12:00,22.4,16.9,30.09,NW,322,2.0,2.0,79,0.00,,,0.00,Wunderground v.1.15,2013-01-02 00:12:00,
2013-01-01 19:18:00,22.5,17.0,30.09,WNW,297,2.0,3.0,79,0.00,,,0.00,Wunderground v.1.15,2013-01-02 00:18:00,
2013-01-01 19:23:00,22.5,17.0,30.08,NW,316,2.0,3.0,79,0.00,,,0.00,weatherlink.com 1.10,2013-01-02 00:23:00,
2013-01-01 19:29:00,22.4,16.9,30.08,WNW,288,1.0,2.0,79,0.00,,,0.00,Wunderground v.1.15,2013-01-02 00:29:00,
2013-01-01 19:35:00,22.5,16.7,30.09,West,280,2.0,3.0,78,0.00,,,0.00,Wunderground v.1.15,2013-01-02 00:35:00,
2013-01-01 19:41:00,22.5,17.0,30.09,WNW,285,1.0,2.0,79,0.00,,,0.00,Wunderground v.1.15,2013-01-02 00:41:00,
2013-01-01 19:46:00,22.5,16.7,30.08,West,281,1.0,2.0,78,0.00,,,0.00,Wunderground v.1.15,2013-01-02 00:46:00,
2013-01-01 19:51:00,22.4,16.6,30.09,West,259,1.0,1.0,78,0.00,,,0.00,Wunderground v.1.15,2013-01-02 00:51:00,
2013-01-01 19:56:00,22.4,16.6,30.09,West,272,1.0,2.0,78,0.00,,,0.00,Wunderground v.1.15,2013-01-02 00:56:00,
2013-01-01 20:02:00,22.3,16.2,30.08,NNW,327,1.0,3.0,77,0.00,,,0.00,Wunderground v.1.15,2013-01-02 01:02:00,
2013-01-01 20:08:00,22.3,15.9,30.08,WNW,287,2.0,6.0,76,0.00,,,0.00,Wunderground v.1.15,2013-01-02 01:08:00,
2013-01-01 20:13:00,22.3,15.6,30.08,NW,314,3.0,3.0,75,0.00,,,0.00,Wunderground v.1.15,2013-01-02 01:13:00,
2013-01-01 20:19:00,22.3,15.3,30.08,WNW,300,4.0,5.0,74,0.00,,,0.00,Wunderground v.1.15,2013-01-02 01:19:00,
2013-01-01 20:24:00,22.3,15.3,30.09,WNW,302,4.0,6.0,74,0.00,,,0.00,Wunderground v.1.15,2013-01-02 01:24:00,
2013-01-01 20:29:00,22.3,15.3,30.09,WNW,292,3.0,3.0,74,0.00,,,0.00,Wunderground v.1.15,2013-01-02 01:29:00,
2013-01-01 20:35:00,22.3,15.3,30.09,WNW,284,2.0,3.0,74,0.00,,,0.00,Wunderground v.1.15,2013-01-02 01:35:00,
2013-01-01 20:40:00,22.3,15.0,30.09,WNW,287,2.0,7.0,74,0.00,,,0.00,weatherlink.com 1.10,2013-01-02 01:40:00,
2013-01-01 20:45:00,22.3,15.3,30.10,WNW,295,3.0,5.0,74,0.00,,,0.00,Wunderground v.1.15,2013-01-02 01:45:00,
2013-01-01 20:51:00,22.4,15.4,30.10,WSW,250,3.0,3.0,74,0.00,,,0.00,Wunderground v.1.15,2013-01-02 01:51:00,
2013-01-01 20:56:00,22.3,15.3,30.09,WNW,287,1.0,3.0,74,0.00,,,0.00,Wunderground v.1.15,2013-01-02 01:56:00,
2013-01-01 21:01:00,22.2,15.5,30.09,WNW,300,0.0,1.0,75,0.00,,,0.00,Wunderground v.1.15,2013-01-02 02:01:00,
2013-01-01 21:09:00,22.2,15.5,30.09,WNW,283,0.0,1.0,75,0.00,,,0.00,Wunderground v.1.15,2013-01-02 02:09:00,
2013-01-01 21:14:00,22.2,15.8,30.09,WNW,283,1.0,3.0,76,0.00,,,0.00,Wunderground v.1.15,2013-01-02 02:14:00,
2013-01-01 21:20:00,22.2,15.8,30.09,West,260,2.0,3.0,76,0.00,,,0.00,Wunderground v.1.15,2013-01-02 02:20:00,
2013-01-01 21:26:00,22.2,15.8,30.09,WSW,250,2.0,3.0,76,0.00,,,0.00,Wunderground v.1.15,2013-01-02 02:26:00,
2013-01-01 21:31:00,22.2,15.5,30.10,WNW,288,2.0,6.0,75,0.00,,,0.00,Wunderground v.1.15,2013-01-02 02:31:00,
2013-01-01 21:36:00,22.1,15.4,30.10,WSW,256,3.0,6.0,75,0.00,,,0.00,Wunderground v.1.15,2013-01-02 02:36:00,
2013-01-01 21:41:00,22.1,15.7,30.10,WNW,285,3.0,5.0,76,0.00,,,0.00,Wunderground v.1.15,2013-01-02 02:41:00,
2013-01-01 21:47:00,22.1,15.7,30.10,West,280,3.0,5.0,76,0.00,,,0.00,Wunderground v.1.15,2013-01-02 02:47:00,
2013-01-01 21:52:00,22.0,15.6,30.10,WNW,291,3.0,6.0,76,0.00,,,0.00,Wunderground v.1.15,2013-01-02 02:52:00,
2013-01-01 21:59:00,22.0,15.6,30.10,WSW,252,3.0,3.0,76,0.00,,,0.00,Wunderground v.1.15,2013-01-02 02:59:00,
2013-01-01 22:06:00,21.9,15.2,30.10,WNW,295,3.0,6.0,75,0.00,,,0.00,Wunderground v.1.15,2013-01-02 03:06:00,
2013-01-01 22:12:00,21.9,14.9,30.10,WNW,286,3.0,6.0,74,0.00,,,0.00,Wunderground v.1.15,2013-01-02 03:12:00,
2013-01-01 22:19:00,21.8,15.1,30.10,WNW,297,3.0,6.0,75,0.00,,,0.00,Wunderground v.1.15,2013-01-02 03:19:00,
2013-01-01 22:24:00,21.8,14.8,30.10,West,266,3.0,3.0,74,0.00,,,0.00,Wunderground v.1.15,2013-01-02 03:24:00,
2013-01-01 22:29:00,21.7,15.0,30.10,West,261,2.0,2.0,75,0.00,,,0.00,Wunderground v.1.15,2013-01-02 03:29:00,
2013-01-01 22:34:00,21.7,15.0,30.11,West,269,2.0,2.0,75,0.00,,,0.00,Wunderground v.1.15,2013-01-02 03:34:00,
2013-01-01 22:40:00,21.6,14.9,30.11,West,266,2.0,2.0,75,0.00,,,0.00,Wunderground v.1.15,2013-01-02 03:40:00,
2013-01-01 22:47:00,21.6,15.2,30.10,SW,232,3.0,4.0,76,0.00,,,0.00,Wunderground v.1.15,2013-01-02 03:47:00,
2013-01-01 22:53:00,21.5,14.8,30.10,WSW,245,3.0,4.0,75,0.00,,,0.00,Wunderground v.1.15,2013-01-02 03:53:00,
2013-01-01 22:59:00,21.5,15.1,30.11,West,267,3.0,3.0,76,0.00,,,0.00,Wunderground v.1.15,2013-01-02 03:59:00,
2013-01-01 23:05:00,21.4,15.0,30.11,West,269,2.0,3.0,76,0.00,,,0.00,Wunderground v.1.15,2013-01-02 04:05:00,
2013-01-01 23:10:00,21.3,14.9,30.10,West,259,2.0,2.0,76,0.00,,,0.00,Wunderground v.1.15,2013-01-02 04:10:00,
2013-01-01 23:16:00,21.3,14.9,30.11,SSW,208,2.0,3.0,76,0.00,,,0.00,Wunderground v.1.15,2013-01-02 04:16:00,
2013-01-01 23:23:00,21.2,14.5,30.10,WSW,249,3.0,6.0,75,0.00,,,0.00,Wunderground v.1.15,2013-01-02 04:23:00,
2013-01-01 23:28:00,21.1,14.4,30.11,SSE,148,4.0,6.0,75,0.00,,,0.00,Wunderground v.1.15,2013-01-02 04:28:00,
2013-01-01 23:35:00,21.1,14.7,30.11,South,170,3.0,6.0,76,0.00,,,0.00,Wunderground v.1.15,2013-01-02 04:35:00,
2013-01-01 23:40:00,21.0,14.6,30.11,West,279,3.0,3.0,76,0.00,,,0.00,Wunderground v.1.15,2013-01-02 04:40:00,
2013-01-01 23:45:00,21.0,14.6,30.11,WSW,244,2.0,5.0,76,0.00,,,0.00,Wunderground v.1.15,2013-01-02 04:45:00,
2013-01-01 23:50:00,20.9,14.5,30.10,SW,232,3.0,4.0,76,0.00,,,0.00,Wunderground v.1.15,2013-01-02 04:50:00,
2013-01-01 23:56:00,20.8,14.7,30.11,SW,225,3.0,4.0,77,0.00,,,0.00,Wunderground v.1.15,2013-01-02 04:56:00,